Regional Weather Roundup
Issued by NWS

Home | Current Version | Previous Version | Text Only | Print | Product List | Glossary Off
Versions: 1 2 3 4 5 6 7 8 9 10 11 12 13 14 15 16 17 18 19 20 21 22 23 24 25 26 27

000
ASUS45 KCYS 191910
RWRWY

WYOMING REGIONAL WEATHER ROUNDUP
NATIONAL WEATHER SERVICE CHEYENNE WY
100 PM MDT SAT APR 19 2014

NOTE:  "FAIR" INDICATES FEW OR NO CLOUDS BELOW 12,000 FEET
WITH NO SIGNIFICANT WEATHER AND/OR OBSTRUCTIONS TO VISIBILITY.

WYZ001-192000-
YELLOWSTONE NATIONAL PARK

CITY           SKY/WX    TMP DP  RH WIND       PRES   REMARKS
LK YELLOWSTONE   N/A     45   8  22 MISG      30.09S
W YELLOWSTONE  NOT AVBL

$$
WYZ002>013-054>058-071-098>099-192000-
NORTHERN WYOMING

CITY           SKY/WX    TMP DP  RH WIND       PRES   REMARKS
JACKSON        SUNNY     54  16  22 W17G25    30.04F
CODY           SUNNY     57  25  28 SE14G20   29.94F
GREYBULL       SUNNY     59  28  30 VRB7      29.96F
WORLAND        MOSUNNY   57  27  31 S7        29.97F
SHERIDAN         N/A     55  30  38 W20G28      N/A
BUFFALO        SUNNY     55  26  32 SE14G21   30.00F
GILLETTE       SUNNY     56  23  27 S7        30.02F
HULETT         FAIR      55  21  26 CALM      30.03
NEWCASTLE      FAIR      57  19  23 CALM      30.03

$$
WYZ014>020-022>026-101>103-192000-
CENTRAL WYOMING

CITY           SKY/WX    TMP DP  RH WIND       PRES   REMARKS
BIG PINEY      SUNNY     56  15  20 E8        30.08F
PINEDALE       CLEAR     52  18  25 NW8       30.09F
DUBOIS         FAIR      52  10  19 W22G30    30.02S
LANDER         MOSUNNY   60  20  21 NE6       29.98F
RIVERTON       PTSUNNY   60  12  15 MISG      29.99F
CASPER         SUNNY     63  28  26 SW10G16   29.98F
DOUGLAS        PTSUNNY   56  33  42 SE12      30.03F

$$
WYZ021-027>030-104>119-192000-
SOUTHERN WYOMING

CITY           SKY/WX    TMP DP  RH WIND       PRES   REMARKS
EVANSTON       PTSUNNY   59  32  36 W20G25    30.09F
KEMMERER       PTCLDY    55  30  38 W8        30.11F
FORT BRIDGER   FAIR      60  33  35 NW12      30.12F
ROCK SPRINGS   MOSUNNY   62  28  27 W7G17     30.07F
DIXON          FAIR      60  35  38 SW16      30.11F
RAWLINS        CLOUDY    57  29  34 W15G23    30.07F
SARATOGA       FAIR      57  30  35 SW8       30.09F
LARAMIE        CLOUDY    56  30  37 SW15      30.09S
CHEYENNE       CLOUDY    56  36  47 SE10      30.08S
TORRINGTON     PTSUNNY   58  36  43 SE10G20   30.04F
PINE BLUFFS    CLOUDY    54  32  43 E7        30.09R

$$



USA.gov is the U.S. government's official web portal to all federal, state and local government web resources and services.